Simultaneous Nadir Overpasses (SNOs) Predictions

Prediction of SNOs between NOAA-21 and NOAA-19 Satellite Orbit:

Table of predicted SNOs for the next 14.0 days since TLE Epoch: 3/1/2025
Index Date (NOAA-21) Time (NOAA-21) Lat,Lon (NOAA-21) SZA (NOAA-21 ) Date (NOAA-19) Time (NOAA-19) Lat,Lon (NOAA-19) SZA (NOAA-19 ) Distance(km) Time Diff (sec)
1 03/11/2025 03:22:56 -71.37, -56.32 104.90 03/11/2025 03:21:43 -71.37, -57.29 104.84 34.30 73
2 03/11/2025 04:13:47 71.63, 110.53 75.36 03/11/2025 04:12:37 71.64, 110.48 75.40 2.62 70
3 03/11/2025 05:04:32 -71.68, -82.26 104.59 03/11/2025 05:03:34 -71.66, -82.23 104.61 3.16 58
4 03/11/2025 05:55:18 71.68, 85.05 75.40 03/11/2025 05:54:33 71.68, 85.07 75.41 0.80 45
5 03/11/2025 06:46:02 -71.69,-107.65 104.61 03/11/2025 06:45:30 -71.70,-107.64 104.60 0.59 32
6 03/11/2025 07:36:48 71.69, 59.66 75.38 03/11/2025 07:36:29 71.72, 59.66 75.41 3.43 19
7 03/11/2025 08:27:33 -71.75,-133.13 104.58 03/11/2025 08:27:26 -71.73,-133.06 104.60 3.02 7
8 03/11/2025 09:18:19 71.75, 34.18 75.41 03/11/2025 09:18:25 71.76, 34.24 75.42 2.58 6
9 03/11/2025 10:09:03 -71.75,-158.52 104.60 03/11/2025 10:09:22 -71.77,-158.47 104.59 2.37 19
10 03/11/2025 10:59:49 71.75, 8.79 75.39 03/11/2025 11:00:22 71.75, 8.74 75.38 2.20 33
11 03/11/2025 11:50:33 -71.76, 176.10 104.62 03/11/2025 11:51:19 -71.76, 176.02 104.63 2.82 46
12 03/11/2025 12:41:20 71.81, -16.69 75.42 03/11/2025 12:42:18 71.78, -16.68 75.38 3.14 58
13 03/11/2025 13:32:04 -71.82, 150.62 104.59 03/11/2025 13:33:15 -71.79, 150.61 104.63 2.67 71
14 03/11/2025 14:22:57 72.18, -42.75 75.79 03/11/2025 14:24:08 72.13, -41.49 75.67 43.49 71



Historial Predications of SNOs between NOAA-21 and NOAA-19
